Regional Weather Roundup
Issued by NWS

Home | Current Version | Previous Version | Text Only | Print | Product List | Glossary On
Versions: 1 2 3 4 5 6 7 8 9 10 11 12 13 14 15 16 17 18 19 20 21 22 23 24 25 26 27 28 29 30 31 32 33 34 35 36 37 38 39 40 41 42 43 44 45 46 47 48 49 50
000
ASUS43 KDTX 312301
RWRMI
MICHIGAN HOURLY REGIONAL WEATHER ROUNDUP
NATIONAL WEATHER SERVICE DETROIT/PONTIAC MI
700 PM EDT FRI JUL 31 2015

NOTE: "FAIR" INDICATES FEW OR NO CLOUDS BELOW 12,000 FEET WITH NO
SIGNIFICANT WEATHER AND/OR OBSTRUCTION TO VISIBILITY.

MIZ047>049-052>055-059>063-066>070-074>076-081>083-010000-
SOUTHEAST LOWER MICHIGAN

CITY           SKY/WX    TMP DP  RH WIND       PRES   REMARKS
ADRIAN         SUNNY     81  54  39 NW12G22   29.89S
ALMA           MOSUNNY   79  50  36 NW15G22   29.86R
ANN ARBOR      SUNNY     81  52  36 W16G24    29.86S
BAD AXE        PTSUNNY   75  58  55 CALM      29.81F
CARO           PTSUNNY   80  57  46 W13G23    29.81S
DETROIT CITY   SUNNY     84  48  28 W15G29    29.82S
DETROIT        MOSUNNY   84  49  29 W21G30    29.84S
FLINT          MOSUNNY   83  53  35 W17       29.84R
GROSSE ILE     SUNNY     84  46  26 W18G25    29.83S
HILLSDALE      MOSUNNY   81  53  38 W14G25    29.91S
HOWELL         MOSUNNY   80  47  30 W10       29.86S

CITY           SKY/WX    TMP DP  RH WIND       PRES   REMARKS
JACKSON        SUNNY     78  52  40 W12G22    29.89S
LAMBERTVILLE   SUNNY     83  49  30 W7        29.87S
LANSING        SUNNY     80  52  37 W12G25    29.88S
LAPEER         FAIR      81  52  37 NW13G23   29.83S
MASON          SUNNY     77  48  35 W15G22    29.88S
MONROE         SUNNY     83  53  35 W15G25    29.85R
MT. CLEMENS    MOSUNNY   83  50  31 W18       29.80S
PONTIAC        MOSUNNY   81  51  35 W21G30    29.84S
PORT HOPE        N/A     70  64  81 SW3       29.77F
PORT HURON     MOSUNNY   81  54  39 W8        29.80S
TRI CITIES     SUNNY     82  51  34 W18G24    29.83R
MIDLAND        FAIR      81  48  30 W13G21    29.82R
TROY           MOSUNNY   83  50  31 W13G22    29.85S
SAGINAW HB     SUNNY     81  54  39 W17G25    29.82R
$$
MIZ043>046-050>051-056>058-064>065-071>073-077>080-010000-
SOUTHWEST LOWER MICHIGAN

CITY           SKY/WX    TMP DP  RH WIND       PRES   REMARKS
BATTLE CREEK   SUNNY     80  51  36 NW15G24   29.91F
BENTON HARBOR  SUNNY     77  56  48 NW8       29.93S
BIG RAPIDS     SUNNY     77  47  34 W7        29.87S
COLDWATER      MOSUNNY   79  49  35 NW16G24   29.91S
FREMONT        FAIR      78  46  31 W13G18    29.88S
HOLLAND        SUNNY     79  53  40 W10       29.92S
GRAND RAPIDS   MOSUNNY   80  50  34 NW18      29.89S
IONIA          FAIR      79  50  36 W16G24    29.87S
KALAMAZOO      SUNNY     80  51  36 NW14      29.91F
LUDINGTON      MOSUNNY   77  59  54 W7        29.88S
MARSHALL       SUNNY     79  52  39 NW9G18    29.90S
MOUNT PLEASANT MOSUNNY   80  47  31 W9G17     29.84S
MUSKEGON       MOSUNNY   79  55  43 W12       29.89F
SOUTH HAVEN    SUNNY     76  57  51 NW6       29.92F
$$
MIZ016>042-010000-
NORTHERN LOWER MICHIGAN

CITY           SKY/WX    TMP DP  RH WIND       PRES   REMARKS
ALPENA         MOSUNNY   74  55  51 SW7       29.79F
BEAVER ISLAND  MOSUNNY   72  57  59 W8        29.83S
BELLAIRE       PTSUNNY   74  58  57 CALM      29.83S
CADILLAC       CLOUDY    74  54  49 NW15      29.87R
CHARLEVOIX     PTSUNNY   68  60  74 W5        29.87S
FRANKFORT      MOSUNNY   74  59  59 W3        29.86S
GAYLORD        PTSUNNY   67  58  72 VRB6G17   29.86R
GRAYLING       CLOUDY    74  52  47 W13       29.85S
HARBOR SPRINGS CLOUDY    69  58  66 W6        29.83F
HOUGHTON LAKE  PTSUNNY   69  58  67 N5        29.85S
MANISTEE       MOSUNNY   73  55  53 W10       29.87S
OSCODA         PTSUNNY   77  50  38 NW15G28   29.80R
PELLSTON       MOSUNNY   74  53  48 W12       29.82F
ROGERS CITY    PTSUNNY   75  52  43 W14       29.80S
TRAVERSE CITY  MOSUNNY   79  53  40 NW14      29.83S
$$
MIZ007>008-015-010000-
EASTERN UPPER MICHIGAN

CITY           SKY/WX    TMP DP  RH WIND       PRES   REMARKS
KINROSS        MOSUNNY   68  55  64 NW18G26   29.81R
MACKINAC ISLAN PTSUNNY   73  52  49 W13G22    29.80S
NEWBERRY       MOSUNNY   68  53  58 NW9G23    29.83S
S. S. MARIE    PTSUNNY   65  55  70 NW10G18   29.81S
MUNISING         N/A     71  55  56 NW12G22   29.84S
$$
MIZ004>006-011>014-085-010000-
CENTRAL UPPER MICHIGAN

CITY           SKY/WX    TMP DP  RH WIND       PRES   REMARKS
ESCANABA       MOSUNNY   75  50  41 W10G20    29.83R
MENOMINEE      MOSUNNY   77  54  44 NW7       29.85S
SAWYER-GWINN   MOSUNNY   73  48  40 NW20      29.86S
$$
MIZ001>003-009>011-084-010000-
WESTERN UPPER MICHIGAN

CITY           SKY/WX    TMP DP  RH WIND       PRES   REMARKS
IRON MOUNTAIN  PTSUNNY   73  52  47 N9        29.88R
HOUGHTON       MOSUNNY   69  52  54 W20G30    29.85F
COPPER HARBOR    N/A     69  53  56 NW10G22   29.81F
IRONWOOD       PTSUNNY   64  57  77 W7        29.89F
$$

ABBREVIATIONS USED IN REMARKS
   TC - TEMPERATURE IN CELSIUS
  WCI - WIND CHILL INDEX
   HX - HEAT INDEX
  VSB - VISIBILITY




USA.gov is the U.S. government's official web portal to all federal, state and local government web resources and services.